Location: Capannuccia
(43.7000°N, 11.3000°E)
Time: 22:16:04
(UTC+00:00)

STARLINK-1312 - Pass Details

Date: 01 October 2020
Orbit: 549 x 550 km, 53.0° (Epoch: 26 October)

Event Time Altitude Azimuth Distance (km) Brightness Sun altitude
Rises 02:44:22 0° 123° (ESE) 2,705 7.6 -27.0°
Enters shadow 03:45:17 -67° 234° (SW) 12,350 10.4 -16.5°
Maximum altitude 04:23:19 25° 132° (SE) 1,125 5.7 -9.7°
